DW5785 Weather Reports


Display with metric or nautical units.
time (UTC)temp
F
wind
direction
speed
MPH
gust
MPH
rain 1hr
in
rain 24hr
in
rain mn
in
humidity
%
barometer
mb
20260510174511 65 305 5.0 8.0 0.00 0.00 0.00 45 1009.4
20260510174020 65 332 5.0 10.0 0.00 0.00 0.00 45 1009.6
20260510173514 65 297 6.0 8.0 0.00 0.00 0.00 44 1009.6
20260510173011 65 306 4.0 9.0 0.00 0.00 0.00 44 1009.7
20260510172515 66 314 7.0 10.0 0.00 0.00 0.00 43 1009.8
20260510172014 66 322 8.0 9.0 0.00 0.00 0.00 43 1009.8
20260510171517 66 340 5.0 11.0 0.00 0.00 0.00 42 1009.9
20260510171014 66 267 2.0 6.0 0.00 0.00 0.00 43 1010.0
20260510170514 66 137 2.0 9.0 0.00 0.00 0.00 43 1010.0
20260510170011 66 297 5.0 10.0 0.00 0.00 0.00 42 1010.1
20260510165518 66 301 9.0 10.0 0.00 0.00 0.00 42 1010.3
20260510165011 66 326 4.0 8.0 0.00 0.00 0.00 41 1010.3
20260510164511 66 337 2.0 6.0 0.00 0.00 0.00 42 1010.4
20260510164014 66 277 4.0 9.0 0.00 0.00 0.00 42 1010.4
20260510163511 66 277 4.0 9.0 0.00 0.00 0.00 42 1010.5
20260510163017 66 295 6.0 9.0 0.00 0.00 0.00 41 1010.6
20260510162515 67 293 4.0 8.0 0.00 0.00 0.00 40 1010.6
20260510162011 67 316 5.0 7.0 0.00 0.00 0.00 40 1010.6
20260510161517 67 358 2.0 6.0 0.00 0.00 0.00 40 1010.6
20260510161011 67 269 5.0 7.0 0.00 0.00 0.00 39 1010.6
20260510160511 67 333 2.0 6.0 0.00 0.00 0.00 38 1010.7
20260510160017 68 317 3.0 6.0 0.00 0.00 0.00 37 1010.8
20260510155512 68 353 5.0 6.0 0.00 0.00 0.00 38 1010.9
20260510155020 68 334 6.0 7.0 0.00 0.00 0.00 37 1010.8
20260510154511 68 308 0.0 6.0 0.00 0.00 0.00 37 1010.9
20260510154011 68 306 2.0 5.0 0.00 0.00 0.00 37 1011.0
20260510153511 68 324 3.0 7.0 0.00 0.00 0.00 38 1011.0
20260510153014 68 265 2.0 8.0 0.00 0.00 0.00 38 1011.1
20260510152512 68 326 2.0 7.0 0.00 0.00 0.00 38 1011.3
20260510152011 68 282 2.0 7.0 0.00 0.00 0.00 39 1011.3
20260510151511 69 272 3.0 4.0 0.00 0.00 0.00 39 1011.3
20260510151020 69 314 2.0 3.0 0.00 0.00 0.00 37 1011.4
20260510150511 68 189 1.0 4.0 0.00 0.00 0.00 38 1011.4
20260510150011 68 306 2.0 5.0 0.00 0.00 0.00 38 1011.4
20260510145518 68 335 3.0 9.0 0.00 0.00 0.00 39 1011.4
20260510145011 68 304 6.0 9.0 0.00 0.00 0.00 39 1011.4
20260510144514 68 317 3.0 6.0 0.00 0.00 0.00 40 1011.4
20260510144011 68 287 3.0 9.0 0.00 0.00 0.00 41 1011.4
20260510143511 68 310 10.0 10.0 0.00 0.00 0.00 40 1011.4
20260510143020 68 308 1.0 4.0 0.00 0.00 0.00 41 1011.5
20260510142512 68 329 4.0 7.0 0.00 0.00 0.00 40 1011.5
20260510142011 68 328 1.0 8.0 0.00 0.00 0.00 40 1011.5
20260510141514 67 14 5.0 15.0 0.00 0.00 0.00 41 1011.6
20260510141014 67 317 14.0 16.0 0.00 0.00 0.00 42 1011.5
20260510140515 67 358 0.0 10.0 0.00 0.00 0.00 42 1011.6
20260510140011 67 8 10.0 12.0 0.00 0.00 0.00 40 1011.6
20260510135514 68 322 4.0 6.0 0.00 0.00 0.00 44 1011.7
20260510135011 68 164 3.0 9.0 0.00 0.00 0.00 45 1011.8
20260510134514 68 28 2.0 10.0 0.00 0.00 0.00 44 1011.8
20260510134014 68 5 3.0 6.0 0.00 0.00 0.00 45 1011.8
20260510133512 68 320 6.0 11.0 0.00 0.00 0.00 43 1011.9
20260510133020 68 314 4.0 9.0 0.00 0.00 0.00 45 1012.0
20260510132517 68 298 2.0 13.0 0.00 0.00 0.00 45 1012.1
20260510132014 68 345 8.0 11.0 0.00 0.00 0.00 46 1012.1
20260510131511 67 26 4.0 10.0 0.00 0.00 0.00 47 1012.1
20260510131014 67 287 5.0 12.0 0.00 0.00 0.00 46 1012.2
20260510130512 67 299 2.0 8.0 0.00 0.00 0.00 46 1012.2
20260510130011 67 282 1.0 5.0 0.00 0.00 0.00 46 1012.3
20260510125511 67 335 4.0 10.0 0.00 0.00 0.00 47 1012.4
20260510125014 66 338 8.0 14.0 0.00 0.00 0.00 49 1012.4
20260510124514 67 321 8.0 12.0 0.00 0.00 0.00 48 1012.4
20260510124017 67 259 3.0 8.0 0.00 0.00 0.00 47 1012.5
20260510123512 67 26 6.0 13.0 0.00 0.00 0.00 47 1012.6
20260510123011 67 62 1.0 9.0 0.00 0.00 0.00 47 1012.8
20260510122514 67 358 2.0 8.0 0.00 0.00 0.00 46 1012.9
20260510122011 68 331 4.0 5.0 0.00 0.00 0.00 46 1012.9
20260510121511 67 282 2.0 7.0 0.00 0.00 0.00 48 1012.9
20260510121011 67 338 8.0 9.0 0.00 0.00 0.00 47 1012.8
20260510120512 67 298 5.0 10.0 0.00 0.00 0.00 48 1013.0
20260510120014 68 287 5.0 5.0 0.00 0.00 0.00 49 1013.0
20260510115511 67 282 2.0 9.0 0.00 0.00 0.00 49 1013.1
20260510115017 67 162 4.0 5.0 0.00 0.00 0.00 51 1013.3
20260510114511 66 282 1.0 7.0 0.00 0.00 0.00 51 1013.4
20260510114011 66 334 7.0 7.0 0.00 0.00 0.00 52 1013.4
20260510113512 66 247 4.0 7.0 0.00 0.00 0.00 52 1013.5
20260510113014 66 299 7.0 7.0 0.00 0.00 0.00 52 1013.5
20260510112511 66 163 1.0 5.0 0.00 0.00 0.00 52 1013.5
20260510112011 66 77 6.0 6.0 0.00 0.00 0.00 51 1013.6
20260510111517 66 358 4.0 11.0 0.00 0.00 0.00 53 1013.6
20260510111020 66 9 5.0 5.0 0.00 0.00 0.00 53 1013.7
20260510110521 65 277 3.0 11.0 0.00 0.00 0.00 53 1013.6
20260510110011 66 14 5.0 7.0 0.00 0.00 0.00 53 1013.7
20260510105514 65 30 1.0 8.0 0.00 0.00 0.00 53 1013.8
20260510105014 65 151 2.0 7.0 0.00 0.00 0.00 54 1013.8
20260510104511 65 24 6.0 9.0 0.00 0.00 0.00 53 1013.9
20260510104011 65 298 2.0 4.0 0.00 0.00 0.00 54 1013.9
20260510103512 64 62 1.0 10.0 0.00 0.00 0.00 55 1014.0
20260510103011 65 1 3.0 7.0 0.00 0.00 0.00 54 1014.0
20260510102520 64 224 2.0 7.0 0.00 0.00 0.00 56 1014.0
20260510102014 63 60 5.0 7.0 0.00 0.00 0.00 56 1014.1
20260510101511 62 359 5.0 11.0 0.00 0.00 0.00 56 1014.1
20260510101011 62 129 7.0 9.0 0.00 0.00 0.00 55 1014.3
20260510100512 63 60 6.0 14.0 0.00 0.00 0.00 55 1014.4
20260510100010 63 42 14.0 14.0 0.00 0.00 0.00 56 1014.3
20260510095510 63 4 1.0 9.0 0.00 0.00 0.00 56 1014.3
20260510095014 63 85 2.0 9.0 0.00 0.00 0.00 57 1014.3
20260510094514 62 48 4.0 9.0 0.00 0.00 0.00 57 1014.3
20260510094014 62 123 1.0 11.0 0.00 0.00 0.00 57 1014.4
20260510093521 62 66 2.0 8.0 0.00 0.00 0.00 58 1014.4
20260510093011 61 23 6.0 9.0 0.00 0.00 0.00 59 1014.5
20260510092511 61 81 6.0 12.0 0.00 0.00 0.00 58 1014.8
20260510092014 61 29 6.0 12.0 0.00 0.00 0.00 59 1014.9
20260510091511 61 84 7.0 11.0 0.00 0.00 0.00 58 1015.0
20260510091011 61 86 6.0 11.0 0.00 0.00 0.00 58 1015.1
20260510090512 61 82 2.0 8.0 0.00 0.00 0.00 59 1015.1
20260510090011 61 258 4.0 8.0 0.00 0.00 0.00 59 1015.1
20260510085517 60 282 3.0 6.0 0.00 0.00 0.00 60 1015.0
20260510085017 60 65 5.0 8.0 0.00 0.00 0.00 59 1015.1
20260510084511 59 53 2.0 11.0 0.00 0.00 0.00 59 1015.1
20260510084014 60 56 5.0 7.0 0.00 0.00 0.00 59 1015.2
20260510083515 60 45 5.0 9.0 0.00 0.00 0.00 58 1015.2
20260510083017 59 258 2.0 7.0 0.00 0.00 0.00 60 1015.3
20260510082511 59 81 4.0 7.0 0.00 0.00 0.00 61 1015.2
20260510082014 58 314 1.0 6.0 0.00 0.00 0.00 63 1015.4
20260510081511 57 287 0.0 6.0 0.00 0.00 0.00 63 1015.4
20260510081017 57 282 2.0 6.0 0.00 0.00 0.00 64 1015.5
20260510080518 56 33 1.0 6.0 0.00 0.00 0.00 65 1015.6
20260510080017 56 316 4.0 6.0 0.00 0.00 0.00 66 1015.5
20260510075511 56 299 1.0 7.0 0.00 0.00 0.00 66 1015.6
20260510075011 56 318 1.0 6.0 0.00 0.00 0.00 67 1015.6
20260510074514 55 287 3.0 6.0 0.00 0.00 0.00 67 1015.6
20260510074011 56 325 4.0 6.0 0.00 0.00 0.00 67 1015.6
20260510073512 56 315 5.0 6.0 0.00 0.00 0.00 66 1015.6
20260510073014 56 335 1.0 5.0 0.00 0.00 0.00 66 1015.7
20260510072511 56 287 4.0 5.0 0.00 0.00 0.00 66 1015.8
20260510072011 56 54 6.0 6.0 0.00 0.00 0.00 66 1015.9
20260510071520 55 65 4.0 6.0 0.00 0.00 0.00 65 1016.0
20260510071011 55 44 2.0 5.0 0.00 0.00 0.00 67 1015.9
20260510070515 54 62 2.0 5.0 0.00 0.00 0.00 68 1016.0
20260510070011 54 262 3.0 6.0 0.00 0.00 0.00 69 1016.1
20260510065520 53 94 4.0 5.0 0.00 0.00 0.00 70 1016.1
20260510065011 54 82 2.0 5.0 0.00 0.00 0.00 69 1016.3
20260510064511 54 96 4.0 4.0 0.00 0.00 0.00 70 1016.3
20260510064011 53 0 2.0 5.0 0.00 0.00 0.00 72 1016.4
20260510063512 53 128 2.0 5.0 0.00 0.00 0.00 74 1016.4
20260510063011 53 94 0.0 3.0 0.00 0.00 0.00 75 1016.3
20260510062511 52 26 1.0 4.0 0.00 0.00 0.00 76 1016.3
20260510062011 52 282 0.0 4.0 0.00 0.00 0.00 77 1016.3
20260510061517 52 64 1.0 5.0 0.00 0.00 0.00 77 1016.3
20260510061017 51 54 1.0 4.0 0.00 0.00 0.00 79 1016.3
20260510060515 51 61 2.0 4.0 0.00 0.00 0.00 79 1016.5
20260510060011 51 31 0.0 5.0 0.00 0.00 0.00 79 1016.5
20260510055517 51 63 2.0 5.0 0.00 0.00 0.00 81 1016.5
20260510055010 50 45 0.0 4.0 0.00 0.00 0.00 81 1016.5
20260510054514 49 59 2.0 5.0 0.00 0.00 0.00 82 1016.6
20260510054014 49 96 0.0 2.0 0.00 0.00 0.00 82 1016.7
20260510053515 49 96 2.0 4.0 0.00 0.00 0.00 82 1016.8
20260510053011 49 134 0.0 3.0 0.00 0.00 0.00 83 1016.8
20260510052511 48 134 1.0 3.0 0.00 0.00 0.00 83 1016.8
20260510052014 48 119 0.0 1.0 0.00 0.00 0.00 84 1016.8
20260510051511 48 119 0.0 2.0 0.00 0.00 0.00 85 1016.6
20260510051011 47 119 1.0 1.0 0.00 0.00 0.00 86 1016.7
20260510050512 46 119 0.0 2.0 0.00 0.00 0.00 87 1016.7
20260510050011 46 119 1.0 1.0 0.00 0.00 0.00 87 1016.8
20260510045511 45 119 1.0 2.0 0.00 0.00 0.00 87 1016.7
20260510045011 45 119 1.0 4.0 0.00 0.00 0.00 87 1016.7
20260510044511 45 37 1.0 4.0 0.00 0.00 0.00 86 1016.7
20260510044011 45 37 2.0 4.0 0.00 0.00 0.00 86 1016.7
20260510043515 45 37 2.0 2.0 0.00 0.00 0.00 86 1016.8
20260510043014 45 37 2.0 4.0 0.00 0.00 0.00 86 1016.7
20260510042511 46 18 4.0 5.0 0.00 0.00 0.00 86 1016.6
20260510042014 46 9 0.0 3.0 0.00 0.00 0.00 86 1016.7
20260510041511 45 35 2.0 2.0 0.00 0.00 0.00 86 1016.9
20260510041017 45 35 0.0 2.0 0.00 0.00 0.00 86 1016.9
20260510040515 45 35 0.0 0.0 0.00 0.00 0.00 86 1016.9
20260510040011 45 35 0.0 0.0 0.00 0.00 0.00 86 1016.9
20260510035514 45 35 0.0 0.0 0.00 0.00 0.00 87 1016.9
20260510035014 45 35 0.0 0.0 0.00 0.00 0.00 87 1016.9
20260510034517 45 35 0.0 2.0 0.00 0.00 0.00 87 1016.9
20260510034011 45 35 1.0 2.0 0.00 0.00 0.00 87 1016.8
20260510033515 45 35 1.0 2.0 0.00 0.00 0.00 87 1016.7
20260510033011 45 35 1.0 4.0 0.00 0.00 0.00 87 1016.6
20260510032514 45 33 2.0 4.0 0.00 0.00 0.00 87 1016.7
20260510032020 45 351 1.0 2.0 0.00 0.00 0.00 87 1016.7
20260510031517 45 351 0.0 2.0 0.00 0.00 0.00 87 1016.7
20260510031011 45 351 0.0 2.0 0.00 0.00 0.00 86 1016.9
20260510030515 45 341 1.0 3.0 0.00 0.00 0.00 86 1016.8
20260510030011 45 329 1.0 2.0 0.00 0.00 0.00 86 1016.8
20260510025514 45 329 0.0 0.0 0.00 0.00 0.00 86 1016.9
20260510025014 45 329 0.0 0.0 0.00 0.00 0.00 86 1017.0
20260510024520 45 329 0.0 2.0 0.00 0.00 0.00 86 1017.0
20260510024011 46 329 0.0 3.0 0.00 0.00 0.00 85 1017.0
20260510023512 46 319 2.0 4.0 0.00 0.00 0.00 85 1016.9
20260510023014 46 325 1.0 3.0 0.00 0.00 0.00 85 1017.1
20260510022511 46 326 1.0 3.0 0.00 0.00 0.00 85 1017.2
20260510022014 46 326 0.0 3.0 0.00 0.00 0.00 85 1017.3
20260510021511 46 326 2.0 4.0 0.00 0.00 0.00 84 1017.3
20260510021017 46 326 2.0 3.0 0.00 0.00 0.00 84 1017.5
20260510020515 47 326 2.0 4.0 0.00 0.00 0.00 84 1017.5
20260510020014 47 326 2.0 3.0 0.00 0.00 0.00 83 1017.5
20260510015511 47 325 2.0 3.0 0.00 0.00 0.00 83 1017.5
20260510015011 47 326 1.0 4.0 0.00 0.00 0.00 82 1017.6
20260510014510 47 331 3.0 5.0 0.00 0.00 0.00 82 1017.6
20260510014010 47 303 2.0 3.0 0.00 0.00 0.00 82 1017.7
20260510013515 48 303 2.0 3.0 0.00 0.00 0.00 82 1017.6
20260510013014 48 304 1.0 3.0 0.00 0.00 0.00 81 1017.7
20260510012511 48 308 2.0 3.0 0.00 0.00 0.00 81 1017.7
20260510012013 48 324 3.0 4.0 0.00 0.00 0.00 81 1017.8
20260510011511 48 326 2.0 3.0 0.00 0.00 0.00 80 1017.7
20260510011011 48 326 2.0 3.0 0.00 0.00 0.00 80 1017.7
20260510010515 48 326 2.0 3.0 0.00 0.00 0.00 80 1017.9
20260510010017 48 326 2.0 3.0 0.00 0.00 0.00 80 1017.9
20260510005517 49 312 3.0 4.0 0.00 0.00 0.00 80 1017.9
20260510005014 49 316 2.0 4.0 0.00 0.00 0.00 79 1017.9
20260510004514 49 308 3.0 4.0 0.00 0.00 0.00 79 1018.0
20260510004015 49 296 4.0 4.0 0.00 0.00 0.00 78 1018.1
20260510003520 49 19 0.0 1.0 0.00 0.00 0.00 77 1018.2
20260510003011 49 19 0.0 2.0 0.00 0.00 0.00 77 1018.3
20260510002514 50 19 2.0 2.0 0.00 0.00 0.00 76 1018.3
20260510002011 50 19 2.0 2.0 0.00 0.00 0.00 75 1018.4
20260510001511 50 19 1.0 1.0 0.00 0.00 0.00 75 1018.5
20260510001015 50 19 1.0 4.0 0.00 0.00 0.00 75 1018.6
20260510000514 50 9 2.0 4.0 0.00 0.00 0.00 75 1018.6
20260510000011 50 11 1.0 3.0 0.00 0.00 0.00 75 1018.7
20260509235511 50 349 1.0 2.0 0.00 0.00 0.00 75 1018.7
20260509235017 50 349 1.0 2.0 0.00 0.00 0.00 74 1018.8
20260509234514 50 349 0.0 1.0 0.00 0.00 0.00 75 1018.8
20260509234012 50 349 0.0 2.0 0.00 0.00 0.00 75 1018.8
20260509233511 50 349 0.0 2.0 0.00 0.00 0.00 75 1018.8
20260509233011 50 349 0.0 1.0 0.00 0.00 0.00 75 1019.0
20260509232517 50 349 0.0 4.0 0.00 0.00 0.00 74 1018.9
20260509232011 50 350 2.0 4.0 0.00 0.00 0.00 74 1018.9
20260509231514 51 0 3.0 4.0 0.00 0.00 0.00 74 1018.9
20260509231012 51 3 2.0 4.0 0.00 0.00 0.00 74 1019.0
20260509230511 51 11 2.0 3.0 0.00 0.00 0.00 74 1019.1
20260509230011 51 11 0.0 5.0 0.00 0.00 0.00 74 1019.2
20260509225514 51 12 2.0 4.0 0.00 0.00 0.00 73 1019.1
20260509225014 51 42 2.0 5.0 0.00 0.00 0.00 73 1019.2
20260509224520 51 32 2.0 6.0 0.00 0.00 0.00 73 1019.2
20260509224012 51 23 1.0 7.0 0.00 0.00 0.00 72 1019.3
20260509223511 51 10 5.0 7.0 0.00 0.00 0.00 72 1019.3
20260509223011 52 15 5.0 7.0 0.00 0.00 0.00 72 1019.3
20260509222511 52 41 2.0 5.0 0.00 0.00 0.00 71 1019.3
20260509222017 52 53 5.0 7.0 0.00 0.00 0.00 71 1019.3
20260509221511 52 29 5.0 9.0 0.00 0.00 0.00 72 1019.3
20260509221018 52 337 1.0 8.0 0.00 0.00 0.00 72 1019.3
20260509220511 52 55 1.0 6.0 0.00 0.00 0.00 72 1019.3
20260509220020 52 12 4.0 7.0 0.00 0.00 0.00 72 1019.4
20260509215510 52 13 4.0 9.0 0.00 0.00 0.00 71 1019.4
20260509215018 52 17 5.0 8.0 0.00 0.00 0.00 72 1019.5
20260509214516 52 25 5.0 8.0 0.00 0.00 0.00 72 1019.5
20260509214011 52 46 4.0 5.0 0.00 0.00 0.00 71 1019.6
20260509213513 53 52 1.0 5.0 0.00 0.00 0.00 71 1019.6
20260509213017 53 30 4.0 8.0 0.00 0.00 0.00 71 1019.7
20260509212513 53 37 2.0 11.0 0.00 0.00 0.00 71 1019.6
20260509212012 52 29 4.0 9.0 0.00 0.00 0.00 72 1019.6
20260509211511 52 9 4.0 7.0 0.00 0.00 0.00 73 1019.6
20260509211013 52 37 6.0 7.0 0.00 0.00 0.00 73 1019.7
20260509210510 52 44 4.0 5.0 0.00 0.00 0.00 73 1019.7
20260509210012 53 46 4.0 6.0 0.00 0.00 0.00 73 1019.7
20260509205514 53 60 7.0 7.0 0.00 0.00 0.00 72 1019.8
20260509205014 53 47 6.0 8.0 0.00 0.00 0.00 72 1019.8
20260509204511 53 17 2.0 5.0 0.00 0.00 0.00 72 1019.7
20260509204013 53 15 1.0 6.0 0.00 0.00 0.00 71 1019.7
20260509203514 53 30 2.0 9.0 0.00 0.00 0.00 71 1019.7
20260509203015 53 353 4.0 11.0 0.00 0.00 0.00 71 1019.7
20260509202517 54 9 5.0 8.0 0.00 0.00 0.00 71 1019.7
20260509202011 54 338 3.0 8.0 0.00 0.00 0.00 70 1019.7
20260509201517 54 355 3.0 7.0 0.00 0.00 0.00 70 1019.7
20260509201014 54 353 3.0 7.0 0.00 0.00 0.00 69 1019.7
20260509200520 54 341 2.0 7.0 0.00 0.00 0.00 69 1019.7
20260509200015 54 9 1.0 11.0 0.00 0.00 0.00 69 1019.7
20260509195511 54 1 7.0 10.0 0.00 0.00 0.00 69 1019.6
20260509195011 54 336 6.0 12.0 0.00 0.00 0.00 69 1019.6
20260509194520 54 352 7.0 8.0 0.00 0.00 0.00 69 1019.6
20260509194011 55 319 3.0 8.0 0.00 0.00 0.00 68 1019.6
20260509193520 55 16 7.0 8.0 0.00 0.00 0.00 68 1019.5
20260509193012 55 337 5.0 7.0 0.00 0.00 0.00 67 1019.5
20260509192514 55 17 4.0 10.0 0.00 0.00 0.00 67 1019.5
20260509192011 55 3 4.0 11.0 0.00 0.00 0.00 67 1019.4
20260509191511 55 39 6.0 12.0 0.00 0.00 0.00 67 1019.4
20260509191011 55 356 8.0 12.0 0.00 0.00 0.00 67 1019.4
20260509190514 55 14 4.0 11.0 0.00 0.00 0.00 67 1019.3
20260509190012 55 4 4.0 9.0 0.00 0.00 0.00 67 1019.3
20260509185520 56 282 6.0 11.0 0.00 0.00 0.00 67 1019.3
20260509185011 56 19 7.0 13.0 0.00 0.00 0.00 66 1019.3
20260509184511 56 12 11.0 13.0 0.00 0.00 0.00 66 1019.2
20260509184012 56 331 8.0 13.0 0.00 0.00 0.00 66 1019.2
20260509183514 56 178 2.0 12.0 0.00 0.00 0.00 66 1019.1
20260509183011 56 66 4.0 14.0 0.00 0.00 0.00 66 1019.2
20260509182514 56 4 6.0 14.0 0.00 0.00 0.00 66 1019.1
20260509182018 57 323 6.0 13.0 0.00 0.00 0.00 65 1019.1
20260509181514 57 25 6.0 15.0 0.00 0.00 0.00 65 1019.1
20260509181011 57 62 6.0 14.0 0.00 0.00 0.00 64 1019.1
20260509180510 57 349 10.0 14.0 0.00 0.00 0.00 63 1019.2
20260509180010 57 32 4.0 12.0 0.00 0.00 0.00 62 1019.1
20260509175515 58 33 5.0 11.0 0.00 0.00 0.00 61 1019.1
20260509175010 58 27 5.0 12.0 0.00 0.00 0.00 61 1019.1